Regional Weather Roundup
Issued by NWS

Home | Current Version | Previous Version | Text Only | Print | Product List | Glossary On
Versions: 1 2 3 4 5 6 7 8 9 10 11 12 13 14 15 16 17 18 19 20 21 22 23 24 25 26 27 28 29 30 31 32 33 34 35 36 37 38 39 40 41 42 43 44 45 46 47 48 49 50
000
ASUS43 KLSX 201207
RWRMO

WEATHER SUMMARY FOR MISSOURI
NATIONAL WEATHER SERVICE SPRINGFIELD MO
600 AM CST TUE FEB 20 2018

NOTE: "FAIR" INDICATES FEW OR NO CLOUDS BELOW 12,000 FEET WITH NO
       SIGNIFICANT WEATHER AND/OR OBSTRUCTIONS TO VISIBILITY.
       CURRENT SKY AND/OR WEATHER CONDITIONS ARE NOT AVAILABLE FOR
       CHILLICOTHE AND FARMINGTON.

MOZ001>031-035>038-043-044-053-054-201300-
...NORTHERN AND WESTERN MISSOURI...

CITY           SKY/WX    TMP DP  RH WIND       PRES   REMARKS
KANSAS CTY INT FRZ DRZL  29  28  96 N8        29.84S FOG     WCI  21
6HR MIN TEMP:  29; 6HR MAX TEMP:  30; 6HR PCP:  0.17;

KANSAS C DTWN  CLOUDY    31  28  89 N5        29.86S WCI  26
6HR MIN TEMP:  31; 6HR MAX TEMP:  33; 6HR PCP:  0.09;

LEE`S SUMMIT   CLOUDY    31  31 100 N10       29.85S FOG     WCI  22
6HR MIN TEMP:  31; 6HR MAX TEMP:  33; 6HR PCP:  0.45;

ST JOSEPH      CLOUDY    28  28 100 NW12      29.89R FOG     WCI  18
6HR MIN TEMP:  28; 6HR MAX TEMP:  29; 6HR PCP:  0.05;

CHILLICOTHE      N/A     32  31  96 NW3       29.85S
6HR MIN TEMP:  32; 6HR MAX TEMP:  34; 6HR PCP:  0.16;

KIRKSVILLE     CLOUDY    36  36 100 NW7       29.83R
6HR MIN TEMP:  36; 6HR MAX TEMP:  41; 6HR PCP:  0.70;


$$
MOZ066>068-077>081-088>096-101>105-201300-
...SOUTHWEST MISSOURI...

CITY           SKY/WX    TMP DP  RH WIND       PRES   REMARKS
SPRINGFIELD    CLOUDY    66  60  81 S18G28    29.83S
6HR MIN TEMP:  65; 6HR MAX TEMP:  68; 6HR PCP: TRACE;

JOPLIN         PTCLDY    66  62  87 S20G26    29.77F
6HR MIN TEMP:  63; 6HR MAX TEMP:  66; 6HR PCP:  0.02;


$$
MOZ032>034-039>042-045>050-055>058-069>072-201300-
...CENTRAL MISSOURI...

CITY           SKY/WX    TMP DP  RH WIND       PRES   REMARKS
COLUMBIA       CLOUDY    66  59  78 S20       29.81R
6HR MIN TEMP:  57; 6HR MAX TEMP:  66; 6HR PCP:  0.02;

JEFFERSON CITY CLOUDY    68  58  70 S13       29.81S
6HR MIN TEMP:  65; 6HR MAX TEMP:  69; 6HR PCP:  0.11;

ROLLA          CLOUDY    66  58  75 S21G32    29.87R
6HR MIN TEMP:  65; 6HR MAX TEMP:  67; 6HR PCP: TRACE;

SEDALIA        CLOUDY    42  42 100 NW9       29.83R
6HR MIN TEMP:  41; 6HR MAX TEMP:  44; 6HR PCP:  0.01;

WHITEMAN AFB   LGT RAIN  37  36  95 N6        29.78R
WARRENSBURG    CLOUDY    34  32  93 NW7       29.83S WCI  28
OSAGE BEACH    CLOUDY    66  59  78 S12       29.84S

$$
MOZ051-052-059>065-201300-
...EAST CENTRAL MISSOURI...

CITY           SKY/WX    TMP DP  RH WIND       PRES   REMARKS
ST LOUIS INTL  CLOUDY    69  57  65 S16G22    29.87R
6HR MIN TEMP:  66; 6HR MAX TEMP:  69; 6HR PCP: TRACE;

SPIRIT OF STL  CLOUDY    71  57  61 S16G26    29.86R
6HR MIN TEMP:  68; 6HR MAX TEMP:  71;

ST CHARLES     CLOUDY    68  57  68 S14       29.86R
6HR MIN TEMP:  62; 6HR MAX TEMP:  68;


$$
MOZ072>076-082>087-097>100-106>115-201300-
...SOUTH CENTRAL AND SOUTHEAST MISSOURI...

CITY           SKY/WX    TMP DP  RH WIND       PRES   REMARKS
CAPE GIRARDEAU MOCLDY    67  60  78 S16G31    30.02R
6HR MIN TEMP:  66; 6HR MAX TEMP:  69;

FARMINGTON     LGT RAIN  65  59  81 S12G22    29.97R
6HR MIN TEMP:  64; 6HR MAX TEMP:  67; 6HR PCP: TRACE;

POPLAR BLUFF   MOCLDY    66  61  84 S17G24    30.02R
6HR MIN TEMP:  64; 6HR MAX TEMP:  67; 6HR PCP: TRACE;

WEST PLAINS    CLOUDY    66  58  75 S15G29    29.95S
6HR MIN TEMP:  66; 6HR MAX TEMP:  68;


$$



USA.gov is the U.S. government's official web portal to all federal, state and local government web resources and services.